Location: Foulognes
(49.1413°N, 0.8183°W)
Time: 12:56:51
(UTC+00:00)

STARLINK-58 - Pass Details

Date: 21 October 2019
Orbit: 548 x 551 km, 53.0° (Epoch: 21 November)

Event Time Altitude Azimuth Distance (km) Brightness Sun altitude
Rises 18:50:59 0° 284° (WNW) 2,721 8.8 -18.4°
Reaches altitude 10° 18:53:17 10° 290° (WNW) 1,827 7.4 -18.8°
Maximum altitude 18:57:20 50° 7° (N) 703 4.1 -19.5°
Enters shadow 18:58:13 42° 48° (NE) 795 4.1 -19.6°
